TimeCDT,TemperatureF,Dew PointF,Humidity,Sea Level PressureIn,VisibilityMPH,Wind Direction,Wind SpeedMPH,Gust SpeedMPH,PrecipitationIn,Events,Conditions,WindDirDegrees,DateUTC
12:53 AM,66.0,36.0,33,30.18,10.0,East,6.9,-,N/A,,Clear,90,2011-10-02 05:53:00
1:53 AM,66.0,37.0,34,30.18,10.0,East,9.2,-,N/A,,Clear,100,2011-10-02 06:53:00
2:53 AM,64.0,37.9,38,30.19,10.0,ESE,9.2,-,N/A,,Clear,120,2011-10-02 07:53:00
3:53 AM,62.6,39.2,42,30.20,10.0,ESE,8.1,-,N/A,,Clear,120,2011-10-02 08:53:00
4:53 AM,60.8,39.2,45,30.20,10.0,ESE,6.9,-,N/A,,Clear,110,2011-10-02 09:53:00
5:53 AM,60.1,39.0,46,30.20,10.0,ESE,9.2,-,N/A,,Clear,110,2011-10-02 10:53:00
6:53 AM,59.0,37.4,45,30.24,10.0,ESE,8.1,-,N/A,,Clear,120,2011-10-02 11:53:00
7:53 AM,59.0,37.9,46,30.25,10.0,ESE,8.1,-,N/A,,Clear,120,2011-10-02 12:53:00
8:53 AM,63.0,37.0,38,30.27,10.0,ESE,13.8,-,N/A,,Clear,110,2011-10-02 13:53:00
9:53 AM,66.2,37.4,35,30.29,10.0,ESE,10.4,-,N/A,,Clear,120,2011-10-02 14:53:00
10:53 AM,69.8,35.6,28,30.29,10.0,SE,6.9,-,N/A,,Clear,130,2011-10-02 15:53:00
11:53 AM,73.9,37.0,26,30.27,10.0,East,8.1,-,N/A,,Clear,90,2011-10-02 16:53:00
12:53 PM,75.9,37.9,25,30.24,10.0,Calm,Calm,-,N/A,,Clear,0,2011-10-02 17:53:00
1:53 PM,78.1,37.0,23,30.21,10.0,Calm,Calm,-,N/A,,Clear,0,2011-10-02 18:53:00
2:53 PM,81.0,35.1,19,30.17,10.0,ENE,8.1,-,N/A,,Clear,70,2011-10-02 19:53:00
3:32 PM,80.6,35.6,20,30.18,10.0,East,4.6,-,N/A,,Partly Cloudy,100,2011-10-02 20:32:00
3:53 PM,82.9,34.0,17,30.16,10.0,Variable,4.6,-,N/A,,Clear,0,2011-10-02 20:53:00
4:53 PM,82.0,32.0,16,30.15,10.0,East,4.6,-,N/A,,Clear,90,2011-10-02 21:53:00
5:53 PM,81.0,32.0,17,30.14,10.0,ENE,6.9,-,N/A,,Clear,60,2011-10-02 22:53:00
6:53 PM,78.1,34.0,20,30.15,10.0,ENE,4.6,-,N/A,,Clear,60,2011-10-02 23:53:00
7:53 PM,73.4,35.6,25,30.17,10.0,East,3.5,-,N/A,,Clear,90,2011-10-03 00:53:00
8:53 PM,68.0,39.0,35,30.17,10.0,Calm,Calm,-,N/A,,Clear,0,2011-10-03 01:53:00
9:53 PM,64.0,37.9,38,30.17,10.0,East,4.6,-,N/A,,Clear,100,2011-10-03 02:53:00
10:53 PM,63.0,39.0,41,30.18,10.0,East,3.5,-,N/A,,Clear,80,2011-10-03 03:53:00
11:53 PM,60.1,39.9,47,30.18,10.0,Calm,Calm,-,N/A,,Clear,0,2011-10-03 04:53:00